Voltar ao catálogo

RADUGA 25

AtivoMilitarGEO
NORAD 20499·PAYLOAD·🇷🇺 Russia

Lançado Feb 15, 1990 de Baikonur Cosmodrome

Loading…

TLE

AtualizadoSource: Space-Track

Época: Sep 14, 2026, 05:37 UTC

1 20499U 90016A   26257.23465671 -.00000071  00000-0  00000-0 0  9995
2 20499  12.2309 334.0956 0006326 221.6508 132.2718  1.00164752133797

Acompanhe RADUGA 25 em tempo real com AllMySat

Download on the App Store